This is the latest recevied weather packets stored in our database for station/object K1ZK-13. If no packets are shown the sender has not sent any weather packets the latest 10 day(s).
| Time | Temp. | Humidity | Pressure | Rain* | Wind** | Luminosity | Snow |
|---|---|---|---|---|---|---|---|
| 1787372902 | 12.78° C | 97% | 1020.7 hPa | 0 mm | - | 0 W/m² | - |
| 1787372598 | 12.78° C | 96% | 1020.8 hPa | 0 mm | - | 0 W/m² | - |
| 1787372293 | 12.78° C | 95% | 1020.6 hPa | 0 mm | - | 0 W/m² | - |
| 1787371990 | 13.33° C | 95% | 1020.6 hPa | 0 mm | - | 0 W/m² | - |
| 1787371685 | 13.33° C | 94% | 1020.6 hPa | 0 mm | - | 0 W/m² | - |
| 1787371381 | 13.33° C | 94% | 1020.6 hPa | 0 mm | - | 0 W/m² | - |
| 1787371080 | 13.89° C | 93% | 1020.7 hPa | 0 mm | - | 0 W/m² | - |
| 1787370776 | 13.89° C | 92% | 1020.7 hPa | 0 mm | - | 0 W/m² | - |
| 1787370475 | 13.89° C | 92% | 1020.7 hPa | 0 mm | - | 0 W/m² | - |
| 1787370171 | 14.44° C | 91% | 1020.7 hPa | 0 mm | - | 0 W/m² | - |
| 1787369866 | 14.44° C | 90% | 1020.7 hPa | 0 mm | - | 0 W/m² | - |
| 1787369563 | 14.44° C | 90% | 1020.6 hPa | 0 mm | - | 0 W/m² | - |
| 1787369260 | 14.44° C | 90% | 1020.7 hPa | 0 mm | - | 0 W/m² | - |
| 1787368955 | 14.44° C | 91% | 1020.6 hPa | 0 mm | - | 0 W/m² | - |
| 1787368654 | 13.89° C | 92% | 1020.8 hPa | 0 mm | - | 0 W/m² | - |
| 1787368349 | 13.89° C | 92% | 1020.7 hPa | 0 mm | - | 0 W/m² | - |
| 1787368045 | 14.44° C | 91% | 1020.7 hPa | 0 mm | - | 0 W/m² | - |
| 1787367741 | 14.44° C | 90% | 1020.7 hPa | 0 mm | - | 0 W/m² | - |
| 1787367441 | 13.89° C | 93% | 1020.7 hPa | 0 mm | - | 0 W/m² | - |
| 1787367136 | 13.89° C | 94% | 1020.7 hPa | 0 mm | - | 0 W/m² | - |
| 1787366835 | 13.89° C | 94% | 1020.6 hPa | 0 mm | - | 0 W/m² | - |
| 1787366530 | 13.89° C | 94% | 1020.8 hPa | 0 mm | - | 0 W/m² | - |
| 1787366225 | 13.33° C | 94% | 1020.8 hPa | 0 mm | - | 0 W/m² | - |
| 1787365921 | 13.33° C | 93% | 1020.7 hPa | 0 mm | - | 0 W/m² | - |
| 1787365616 | 13.89° C | 92% | 1020.6 hPa | 0 mm | - | 0 W/m² | - |
* Rain latest hour (hover to see other rain measurements)
** Current wind speed in m/s (hover to see current wind gust speed)